TimeEST,TemperatureF,Dew PointF,Humidity,Sea Level PressureIn,VisibilityMPH,Wind Direction,Wind SpeedMPH,Gust SpeedMPH,PrecipitationIn,Events,Conditions,WindDirDegrees,DateUTC
12:53 AM,78.1,70.0,76,30.09,10.0,ESE,13.8,-,N/A,,Clear,120,2013-12-06 05:53:00
1:53 AM,78.1,69.1,74,30.07,10.0,SE,16.1,-,N/A,,Clear,130,2013-12-06 06:53:00
2:53 AM,77.0,69.1,76,30.06,10.0,ESE,16.1,-,N/A,,Clear,120,2013-12-06 07:53:00
3:53 AM,77.0,69.1,76,30.06,10.0,ESE,17.3,-,N/A,,Partly Cloudy,120,2013-12-06 08:53:00
4:53 AM,77.0,69.1,76,30.07,10.0,ESE,16.1,-,N/A,,Partly Cloudy,120,2013-12-06 09:53:00
5:53 AM,77.0,69.1,76,30.09,10.0,ESE,12.7,-,N/A,,Clear,120,2013-12-06 10:53:00
6:53 AM,77.0,70.0,79,30.10,10.0,ESE,12.7,-,N/A,,Clear,120,2013-12-06 11:53:00
7:53 AM,77.0,71.1,82,30.12,10.0,ESE,12.7,-,N/A,,Clear,120,2013-12-06 12:53:00
8:53 AM,79.0,72.0,79,30.14,10.0,ESE,11.5,-,N/A,,Partly Cloudy,110,2013-12-06 13:53:00
9:53 AM,80.1,72.0,76,30.15,10.0,ESE,15.0,-,N/A,,Partly Cloudy,110,2013-12-06 14:53:00
10:53 AM,78.1,73.0,84,30.15,10.0,SE,15.0,-,N/A,,Mostly Cloudy,130,2013-12-06 15:53:00
11:53 AM,79.0,72.0,79,30.14,10.0,SSE,16.1,-,N/A,,Mostly Cloudy,150,2013-12-06 16:53:00
12:53 PM,78.1,70.0,76,30.12,10.0,SSE,9.2,-,N/A,,Mostly Cloudy,160,2013-12-06 17:53:00
1:53 PM,80.1,71.1,74,30.10,10.0,ESE,15.0,-,N/A,,Overcast,110,2013-12-06 18:53:00
2:53 PM,80.1,71.1,74,30.09,10.0,ESE,15.0,-,N/A,,Clear,110,2013-12-06 19:53:00
3:53 PM,80.1,71.1,74,30.09,10.0,ESE,16.1,-,N/A,,Clear,120,2013-12-06 20:53:00
4:53 PM,79.0,70.0,74,30.09,10.0,ESE,15.0,-,N/A,,Clear,120,2013-12-06 21:53:00
5:53 PM,78.1,69.1,74,30.11,10.0,ESE,15.0,-,N/A,,Clear,120,2013-12-06 22:53:00
6:53 PM,78.1,69.1,74,30.13,10.0,ESE,12.7,-,N/A,,Clear,120,2013-12-06 23:53:00
7:53 PM,77.0,69.1,76,30.14,10.0,ESE,11.5,-,N/A,,Clear,110,2013-12-07 00:53:00
8:53 PM,77.0,68.0,74,30.15,10.0,ESE,12.7,-,N/A,,Clear,120,2013-12-07 01:53:00
9:53 PM,77.0,68.0,74,30.16,10.0,ESE,12.7,-,N/A,,Clear,120,2013-12-07 02:53:00
10:53 PM,77.0,68.0,74,30.17,10.0,ESE,10.4,-,N/A,,Partly Cloudy,120,2013-12-07 03:53:00
11:53 PM,77.0,66.0,69,30.16,10.0,ESE,15.0,-,N/A,,Clear,110,2013-12-07 04:53:00